This is the latest recevied weather packets stored in our database for station/object DO1YM-13. If no packets are shown the sender has not sent any weather packets the latest 10 day(s).
| Time | Temp. | Humidity | Pressure | Rain* | Wind** | Luminosity | Snow |
|---|---|---|---|---|---|---|---|
| 1787658651 | 23.89° C | 44% | 1013.2 hPa | 0 mm | - | 109 W/m² | - |
| 1787658348 | 23.33° C | 46% | 1012.9 hPa | 0 mm | - | 747 W/m² | - |
| 1787658053 | 23.89° C | 44% | 1013.2 hPa | 0 mm | - | 746 W/m² | - |
| 1787657748 | 23.33° C | 46% | 1013.5 hPa | 0 mm | - | 147 W/m² | - |
| 1787657448 | 23.33° C | 46% | 1013.5 hPa | 0 mm | - | 576 W/m² | - |
| 1787657148 | 23.89° C | 44% | 1013.5 hPa | 0 mm | - | 769 W/m² | - |
| 1787656847 | 23.89° C | 46% | 1013.2 hPa | 0 mm | - | 177 W/m² | - |
| 1787656547 | 23.89° C | 44% | 1013.5 hPa | 0 mm | - | 327 W/m² | - |
| 1787655950 | 23.33° C | 42% | 1013.5 hPa | 0 mm | - | 731 W/m² | - |
| 1787655648 | 23.33° C | 42% | 1013.5 hPa | 0 mm | - | 723 W/m² | - |
| 1787655348 | 23.33° C | 43% | 1013.5 hPa | 0 mm | - | 721 W/m² | - |
| 1787655048 | 23.33° C | 43% | 1013.5 hPa | 0 mm | - | 721 W/m² | - |
| 1787654749 | 23.33° C | 43% | 1013.9 hPa | 0 mm | - | 708 W/m² | - |
| 1787654449 | 23.33° C | 44% | 1013.9 hPa | 0 mm | - | 716 W/m² | - |
| 1787654147 | 23.33° C | 43% | 1013.9 hPa | 0 mm | - | 713 W/m² | - |
| 1787653848 | 22.78° C | 45% | 1013.9 hPa | 0 mm | - | 707 W/m² | - |
| 1787653547 | 23.33° C | 44% | 1013.9 hPa | 0 mm | - | 703 W/m² | - |
| 1787653248 | 22.78° C | 45% | 1013.9 hPa | 0 mm | - | 709 W/m² | - |
| 1787652947 | 22.78° C | 47% | 1013.9 hPa | 0 mm | - | 703 W/m² | - |
| 1787652647 | 23.33° C | 46% | 1014.2 hPa | 0 mm | - | 700 W/m² | - |
| 1787652349 | 22.78° C | 47% | 1014.2 hPa | 0 mm | - | 702 W/m² | - |
| 1787652048 | 22.22° C | 48% | 1013.9 hPa | 0 mm | - | 694 W/m² | - |
| 1787651747 | 22.78° C | 48% | 1014.2 hPa | 0 mm | - | 677 W/m² | - |
| 1787651448 | 22.22° C | 47% | 1014.2 hPa | 0 mm | - | 672 W/m² | - |
| 1787651149 | 21.67° C | 51% | 1014.2 hPa | 0 mm | - | 659 W/m² | - |
* Rain latest hour (hover to see other rain measurements)
** Current wind speed in m/s (hover to see current wind gust speed)